Date_Time,Julian_Date,Latitude,Longitude,Instrument_Depth,U,V,Speed,Direction
(yyyy-mm-dd hh:mn:ss UTC),(JD),(+ deg. North),(+ deg. East),(m),(cm/s),(cm/s),(cm/s),(deg True)
1983-10-04 17:00:00 UTC,2445612.208333,28.7317,-95.2428,0109,-0.58,10.98,11.0000,357.0000
1983-10-04 17:30:00 UTC,2445612.229167,28.7317,-95.2428,0109,0.00,11.00,11.0000,0.0000
1983-10-04 18:00:00 UTC,2445612.250000,28.7317,-95.2428,0109,0.70,9.98,10.0000,4.0000
1983-10-04 18:30:00 UTC,2445612.270833,28.7317,-95.2428,0109,1.56,9.88,10.0000,9.0000
1983-10-04 19:00:00 UTC,2445612.291667,28.7317,-95.2428,0109,1.87,8.80,9.0000,12.0000
1983-10-04 19:30:00 UTC,2445612.312500,28.7317,-95.2428,0109,2.33,8.69,9.0000,15.0000
1983-10-04 20:00:00 UTC,2445612.333333,28.7317,-95.2428,0109,3.23,8.40,9.0000,21.0000
1983-10-04 20:30:00 UTC,2445612.354167,28.7317,-95.2428,0109,4.54,8.91,10.0000,27.0000
1983-10-04 21:00:00 UTC,2445612.375000,28.7317,-95.2428,0109,4.09,8.02,9.0000,27.0000
1983-10-04 21:30:00 UTC,2445612.395833,28.7317,-95.2428,0109,4.36,7.87,9.0000,29.0000
1983-10-04 22:00:00 UTC,2445612.416667,28.7317,-95.2428,0109,5.88,8.09,10.0000,36.0000
1983-10-04 22:30:00 UTC,2445612.437500,28.7317,-95.2428,0109,7.22,8.30,11.0000,41.0000
1983-10-04 23:00:00 UTC,2445612.458333,28.7317,-95.2428,0109,7.50,8.04,11.0000,43.0000
1983-10-04 23:30:00 UTC,2445612.479167,28.7317,-95.2428,0109,6.69,7.43,10.0000,42.0000
1983-10-05 00:00:00 UTC,2445612.500000,28.7317,-95.2428,0109,5.90,6.79,9.0000,41.0000
1983-10-05 00:30:00 UTC,2445612.520833,28.7317,-95.2428,0109,5.79,6.89,9.0000,40.0000
1983-10-05 01:00:00 UTC,2445612.541667,28.7317,-95.2428,0109,6.29,7.77,10.0000,39.0000
1983-10-05 01:30:00 UTC,2445612.562500,28.7317,-95.2428,0109,6.16,7.88,10.0000,38.0000
1983-10-05 02:00:00 UTC,2445612.583333,28.7317,-95.2428,0109,6.15,9.12,11.0000,34.0000
1983-10-05 02:30:00 UTC,2445612.604167,28.7317,-95.2428,0109,5.82,10.50,12.0000,29.0000
1983-10-05 03:00:00 UTC,2445612.625000,28.7317,-95.2428,0109,5.26,10.79,12.0000,26.0000
1983-10-05 03:30:00 UTC,2445612.645833,28.7317,-95.2428,0109,5.90,11.58,13.0000,27.0000
1983-10-05 04:00:00 UTC,2445612.666667,28.7317,-95.2428,0109,7.73,12.86,15.0000,31.0000
1983-10-05 04:30:00 UTC,2445612.687500,28.7317,-95.2428,0109,10.83,14.38,18.0000,37.0000
1983-10-05 05:00:00 UTC,2445612.708333,28.7317,-95.2428,0109,12.21,14.55,19.0000,40.0000
1983-10-05 05:30:00 UTC,2445612.729167,28.7317,-95.2428,0109,12.96,13.90,19.0000,43.0000
1983-10-05 06:00:00 UTC,2445612.750000,28.7317,-95.2428,0109,12.73,12.73,18.0000,45.0000
1983-10-05 06:30:00 UTC,2445612.770833,28.7317,-95.2428,0109,12.28,13.16,18.0000,43.0000
1983-10-05 07:00:00 UTC,2445612.791667,28.7317,-95.2428,0109,11.15,12.83,17.0000,41.0000
1983-10-05 07:30:00 UTC,2445612.812500,28.7317,-95.2428,0109,10.93,13.02,17.0000,40.0000
1983-10-05 08:00:00 UTC,2445612.833333,28.7317,-95.2428,0109,11.15,12.83,17.0000,41.0000
1983-10-05 08:30:00 UTC,2445612.854167,28.7317,-95.2428,0109,10.28,12.26,16.0000,40.0000
1983-10-05 09:00:00 UTC,2445612.875000,28.7317,-95.2428,0109,8.43,11.18,14.0000,37.0000
1983-10-05 09:30:00 UTC,2445612.895833,28.7317,-95.2428,0109,6.88,9.83,12.0000,35.0000
1983-10-05 10:00:00 UTC,2445612.916667,28.7317,-95.2428,0109,5.30,8.48,10.0000,32.0000
1983-10-05 10:30:00 UTC,2445612.937500,28.7317,-95.2428,0109,4.50,7.79,9.0000,30.0000
1983-10-05 11:00:00 UTC,2445612.958333,28.7317,-95.2428,0109,3.63,7.13,8.0000,27.0000
1983-10-05 11:30:00 UTC,2445612.979167,28.7317,-95.2428,0109,2.87,7.47,8.0000,21.0000
1983-10-05 12:00:00 UTC,2445613.000000,28.7317,-95.2428,0109,2.18,8.73,9.0000,14.0000
1983-10-05 12:30:00 UTC,2445613.020833,28.7317,-95.2428,0109,1.72,10.86,11.0000,9.0000
1983-10-05 13:00:00 UTC,2445613.041667,28.7317,-95.2428,0109,1.36,12.93,13.0000,6.0000
1983-10-05 13:30:00 UTC,2445613.062500,28.7317,-95.2428,0109,1.12,15.96,16.0000,4.0000
1983-10-05 14:00:00 UTC,2445613.083333,28.7317,-95.2428,0109,1.26,17.96,18.0000,4.0000
1983-10-05 14:30:00 UTC,2445613.104167,28.7317,-95.2428,0109,2.78,19.81,20.0000,8.0000
1983-10-05 15:00:00 UTC,2445613.125000,28.7317,-95.2428,0109,4.37,20.54,21.0000,12.0000
1983-10-05 15:30:00 UTC,2445613.145833,28.7317,-95.2428,0109,5.79,20.19,21.0000,16.0000
1983-10-05 16:00:00 UTC,2445613.166667,28.7317,-95.2428,0109,7.16,20.80,22.0000,19.0000
1983-10-05 16:30:00 UTC,2445613.187500,28.7317,-95.2428,0109,9.35,21.01,23.0000,24.0000
1983-10-05 17:00:00 UTC,2445613.208333,28.7317,-95.2428,0109,11.74,22.07,25.0000,28.0000
1983-10-05 17:30:00 UTC,2445613.229167,28.7317,-95.2428,0109,14.42,24.00,28.0000,31.0000
1983-10-05 18:00:00 UTC,2445613.250000,28.7317,-95.2428,0109,16.22,24.04,29.0000,34.0000
1983-10-05 18:30:00 UTC,2445613.270833,28.7317,-95.2428,0109,15.05,19.97,25.0000,37.0000
1983-10-05 19:00:00 UTC,2445613.291667,28.7317,-95.2428,0109,10.07,12.43,16.0000,39.0000
1983-10-05 19:30:00 UTC,2445613.312500,28.7317,-95.2428,0109,8.03,8.92,12.0000,42.0000
1983-10-05 20:00:00 UTC,2445613.333333,28.7317,-95.2428,0109,9.37,10.40,14.0000,42.0000
1983-10-05 20:30:00 UTC,2445613.354167,28.7317,-95.2428,0109,9.73,10.07,14.0000,44.0000
1983-10-05 21:00:00 UTC,2445613.375000,28.7317,-95.2428,0109,9.51,8.87,13.0000,47.0000
1983-10-05 21:30:00 UTC,2445613.395833,28.7317,-95.2428,0109,8.30,7.22,11.0000,49.0000
1983-10-05 22:00:00 UTC,2445613.416667,28.7317,-95.2428,0109,7.77,6.29,10.0000,51.0000
1983-10-05 22:30:00 UTC,2445613.437500,28.7317,-95.2428,0109,8.09,5.88,10.0000,54.0000
1983-10-05 23:00:00 UTC,2445613.458333,28.7317,-95.2428,0109,8.57,5.15,10.0000,59.0000
1983-10-05 23:30:00 UTC,2445613.479167,28.7317,-95.2428,0109,8.83,4.69,10.0000,62.0000
1983-10-06 00:00:00 UTC,2445613.500000,28.7317,-95.2428,0109,8.09,3.95,9.0000,64.0000
1983-10-06 00:30:00 UTC,2445613.520833,28.7317,-95.2428,0109,8.16,3.80,9.0000,65.0000
1983-10-06 01:00:00 UTC,2445613.541667,28.7317,-95.2428,0109,8.22,3.66,9.0000,66.0000
1983-10-06 01:30:00 UTC,2445613.562500,28.7317,-95.2428,0109,9.21,3.91,10.0000,67.0000
1983-10-06 02:00:00 UTC,2445613.583333,28.7317,-95.2428,0109,9.34,3.58,10.0000,69.0000
1983-10-06 02:30:00 UTC,2445613.604167,28.7317,-95.2428,0109,9.40,3.42,10.0000,70.0000
1983-10-06 03:00:00 UTC,2445613.625000,28.7317,-95.2428,0109,9.40,3.42,10.0000,70.0000
1983-10-06 03:30:00 UTC,2445613.645833,28.7317,-95.2428,0109,10.13,4.30,11.0000,67.0000
1983-10-06 04:00:00 UTC,2445613.666667,28.7317,-95.2428,0109,10.05,4.47,11.0000,66.0000
1983-10-06 04:30:00 UTC,2445613.687500,28.7317,-95.2428,0109,9.97,4.65,11.0000,65.0000
1983-10-06 05:00:00 UTC,2445613.708333,28.7317,-95.2428,0109,9.97,4.65,11.0000,65.0000
1983-10-06 05:30:00 UTC,2445613.729167,28.7317,-95.2428,0109,9.89,4.82,11.0000,64.0000
1983-10-06 06:00:00 UTC,2445613.750000,28.7317,-95.2428,0109,10.60,5.63,12.0000,62.0000
1983-10-06 06:30:00 UTC,2445613.770833,28.7317,-95.2428,0109,12.24,6.79,14.0000,61.0000
1983-10-06 07:00:00 UTC,2445613.791667,28.7317,-95.2428,0109,15.15,7.72,17.0000,63.0000
1983-10-06 07:30:00 UTC,2445613.812500,28.7317,-95.2428,0109,16.80,6.45,18.0000,69.0000
1983-10-06 08:00:00 UTC,2445613.833333,28.7317,-95.2428,0109,15.71,3.05,16.0000,79.0000
1983-10-06 08:30:00 UTC,2445613.854167,28.7317,-95.2428,0109,14.00,0.24,14.0000,89.0000
1983-10-06 09:00:00 UTC,2445613.875000,28.7317,-95.2428,0109,13.00,-0.23,13.0000,91.0000
1983-10-06 09:30:00 UTC,2445613.895833,28.7317,-95.2428,0109,10.96,-0.96,11.0000,95.0000
1983-10-06 10:00:00 UTC,2445613.916667,28.7317,-95.2428,0109,7.73,-2.07,8.0000,105.0000
1983-10-06 10:30:00 UTC,2445613.937500,28.7317,-95.2428,0109,3.94,-3.08,5.0000,128.0000
1983-10-06 11:00:00 UTC,2445613.958333,28.7317,-95.2428,0109,0.88,-2.87,3.0000,163.0000
1983-10-06 11:30:00 UTC,2445613.979167,28.7317,-95.2428,0109,-1.41,-1.41,2.0000,225.0000
1983-10-06 12:00:00 UTC,2445614.000000,28.7317,-95.2428,0109,-3.00,0.16,3.0000,273.0000
1983-10-06 12:30:00 UTC,2445614.020833,28.7317,-95.2428,0109,-3.46,2.00,4.0000,300.0000
1983-10-06 13:00:00 UTC,2445614.041667,28.7317,-95.2428,0109,-2.87,4.10,5.0000,325.0000
1983-10-06 13:30:00 UTC,2445614.062500,28.7317,-95.2428,0109,-2.11,4.53,5.0000,335.0000
1983-10-06 14:00:00 UTC,2445614.083333,28.7317,-95.2428,0109,-1.56,3.68,4.0000,337.0000
1983-10-06 14:30:00 UTC,2445614.104167,28.7317,-95.2428,0109,-1.37,3.76,4.0000,340.0000
1983-10-06 15:00:00 UTC,2445614.125000,28.7317,-95.2428,0109,-1.55,4.76,5.0000,342.0000
1983-10-06 15:30:00 UTC,2445614.145833,28.7317,-95.2428,0109,-1.10,3.85,4.0000,344.0000
1983-10-06 16:00:00 UTC,2445614.166667,28.7317,-95.2428,0109,-0.83,3.91,4.0000,348.0000
1983-10-06 16:30:00 UTC,2445614.187500,28.7317,-95.2428,0109,-0.56,3.96,4.0000,352.0000
1983-10-06 17:00:00 UTC,2445614.208333,28.7317,-95.2428,0109,-0.31,5.99,6.0000,357.0000
1983-10-06 17:30:00 UTC,2445614.229167,28.7317,-95.2428,0109,0.28,8.00,8.0000,2.0000
1983-10-06 18:00:00 UTC,2445614.250000,28.7317,-95.2428,0109,0.85,6.95,7.0000,7.0000
1983-10-06 18:30:00 UTC,2445614.270833,28.7317,-95.2428,0109,1.45,5.82,6.0000,14.0000
1983-10-06 19:00:00 UTC,2445614.291667,28.7317,-95.2428,0109,2.74,6.44,7.0000,23.0000
1983-10-06 19:30:00 UTC,2445614.312500,28.7317,-95.2428,0109,3.29,6.18,7.0000,28.0000
1983-10-06 20:00:00 UTC,2445614.333333,28.7317,-95.2428,0109,1.68,2.49,3.0000,34.0000
1983-10-06 20:30:00 UTC,2445614.354167,28.7317,-95.2428,0109,1.81,0.85,2.0000,65.0000
1983-10-06 21:00:00 UTC,2445614.375000,28.7317,-95.2428,0109,3.85,1.10,4.0000,74.0000
1983-10-06 21:30:00 UTC,2445614.395833,28.7317,-95.2428,0109,5.93,0.94,6.0000,81.0000
1983-10-06 22:00:00 UTC,2445614.416667,28.7317,-95.2428,0109,5.99,-0.42,6.0000,94.0000
1983-10-06 22:30:00 UTC,2445614.437500,28.7317,-95.2428,0109,7.69,-2.21,8.0000,106.0000
1983-10-06 23:00:00 UTC,2445614.458333,28.7317,-95.2428,0109,8.83,-4.69,10.0000,118.0000
1983-10-06 23:30:00 UTC,2445614.479167,28.7317,-95.2428,0109,9.06,-7.87,12.0000,131.0000
1983-10-07 00:00:00 UTC,2445614.500000,28.7317,-95.2428,0109,6.47,-8.90,11.0000,144.0000
1983-10-07 00:30:00 UTC,2445614.520833,28.7317,-95.2428,0109,3.42,-9.40,10.0000,160.0000
1983-10-07 01:00:00 UTC,2445614.541667,28.7317,-95.2428,0109,1.91,-10.83,11.0000,170.0000
1983-10-07 01:30:00 UTC,2445614.562500,28.7317,-95.2428,0109,0.96,-10.96,11.0000,175.0000
1983-10-07 02:00:00 UTC,2445614.583333,28.7317,-95.2428,0109,-0.70,-9.98,10.0000,184.0000
1983-10-07 02:30:00 UTC,2445614.604167,28.7317,-95.2428,0109,-2.63,-8.61,9.0000,197.0000
1983-10-07 03:00:00 UTC,2445614.625000,28.7317,-95.2428,0109,-4.50,-7.79,9.0000,210.0000
1983-10-07 03:30:00 UTC,2445614.645833,28.7317,-95.2428,0109,-6.15,-9.12,11.0000,214.0000
1983-10-07 04:00:00 UTC,2445614.666667,28.7317,-95.2428,0109,-5.82,-10.50,12.0000,209.0000
1983-10-07 04:30:00 UTC,2445614.687500,28.7317,-95.2428,0109,-4.50,-11.13,12.0000,202.0000
1983-10-07 05:00:00 UTC,2445614.708333,28.7317,-95.2428,0109,-5.02,-13.07,14.0000,201.0000
1983-10-07 05:30:00 UTC,2445614.729167,28.7317,-95.2428,0109,-6.58,-13.48,15.0000,206.0000
1983-10-07 06:00:00 UTC,2445614.750000,28.7317,-95.2428,0109,-8.71,-13.42,16.0000,213.0000
1983-10-07 06:30:00 UTC,2445614.770833,28.7317,-95.2428,0109,-9.63,-12.78,16.0000,217.0000
1983-10-07 07:00:00 UTC,2445614.791667,28.7317,-95.2428,0109,-9.85,-12.61,16.0000,218.0000
1983-10-07 07:30:00 UTC,2445614.812500,28.7317,-95.2428,0109,-10.91,-11.70,16.0000,223.0000
1983-10-07 08:00:00 UTC,2445614.833333,28.7317,-95.2428,0109,-12.61,-9.85,16.0000,232.0000
1983-10-07 08:30:00 UTC,2445614.854167,28.7317,-95.2428,0109,-13.26,-8.95,16.0000,236.0000
1983-10-07 09:00:00 UTC,2445614.875000,28.7317,-95.2428,0109,-12.29,-8.60,15.0000,235.0000
1983-10-07 09:30:00 UTC,2445614.895833,28.7317,-95.2428,0109,-12.29,-8.60,15.0000,235.0000
1983-10-07 10:00:00 UTC,2445614.916667,28.7317,-95.2428,0109,-12.58,-8.17,15.0000,237.0000
1983-10-07 10:30:00 UTC,2445614.937500,28.7317,-95.2428,0109,-13.26,-8.95,16.0000,236.0000
1983-10-07 11:00:00 UTC,2445614.958333,28.7317,-95.2428,0109,-13.26,-8.95,16.0000,236.0000
1983-10-07 11:30:00 UTC,2445614.979167,28.7317,-95.2428,0109,-14.09,-9.51,17.0000,236.0000
1983-10-07 12:00:00 UTC,2445615.000000,28.7317,-95.2428,0109,-13.26,-8.95,16.0000,236.0000
1983-10-07 12:30:00 UTC,2445615.020833,28.7317,-95.2428,0109,-12.58,-8.17,15.0000,237.0000
1983-10-07 13:00:00 UTC,2445615.041667,28.7317,-95.2428,0109,-12.12,-7.00,14.0000,240.0000
1983-10-07 13:30:00 UTC,2445615.062500,28.7317,-95.2428,0109,-12.47,-6.36,14.0000,243.0000
1983-10-07 14:00:00 UTC,2445615.083333,28.7317,-95.2428,0109,-11.78,-5.49,13.0000,245.0000
1983-10-07 14:30:00 UTC,2445615.104167,28.7317,-95.2428,0109,-10.96,-4.88,12.0000,246.0000
1983-10-07 15:00:00 UTC,2445615.125000,28.7317,-95.2428,0109,-9.21,-3.91,10.0000,247.0000
1983-10-07 15:30:00 UTC,2445615.145833,28.7317,-95.2428,0109,-9.21,-3.91,10.0000,247.0000
1983-10-07 16:00:00 UTC,2445615.166667,28.7317,-95.2428,0109,-8.40,-3.23,9.0000,249.0000
1983-10-07 16:30:00 UTC,2445615.187500,28.7317,-95.2428,0109,-7.69,-2.21,8.0000,254.0000
1983-10-07 17:00:00 UTC,2445615.208333,28.7317,-95.2428,0109,-6.91,-1.10,7.0000,261.0000
1983-10-07 17:30:00 UTC,2445615.229167,28.7317,-95.2428,0109,-5.99,-0.31,6.0000,267.0000
1983-10-07 18:00:00 UTC,2445615.250000,28.7317,-95.2428,0109,-5.99,0.31,6.0000,273.0000
1983-10-07 18:30:00 UTC,2445615.270833,28.7317,-95.2428,0109,-5.98,0.52,6.0000,275.0000
1983-10-07 19:00:00 UTC,2445615.291667,28.7317,-95.2428,0109,-5.96,0.73,6.0000,277.0000
1983-10-07 19:30:00 UTC,2445615.312500,28.7317,-95.2428,0109,-4.87,1.12,5.0000,283.0000
1983-10-07 20:00:00 UTC,2445615.333333,28.7317,-95.2428,0109,-3.80,1.24,4.0000,288.0000
1983-10-07 20:30:00 UTC,2445615.354167,28.7317,-95.2428,0109,-3.86,1.04,4.0000,285.0000
1983-10-07 21:00:00 UTC,2445615.375000,28.7317,-95.2428,0109,-2.97,0.42,3.0000,278.0000
1983-10-07 21:30:00 UTC,2445615.395833,28.7317,-95.2428,0109,-3.00,0.05,3.0000,271.0000
1983-10-07 22:00:00 UTC,2445615.416667,28.7317,-95.2428,0109,-2.93,-0.62,3.0000,258.0000
1983-10-07 22:30:00 UTC,2445615.437500,28.7317,-95.2428,0109,-2.46,-1.72,3.0000,235.0000
1983-10-07 23:00:00 UTC,2445615.458333,28.7317,-95.2428,0109,-2.41,-3.19,4.0000,217.0000
1983-10-07 23:30:00 UTC,2445615.479167,28.7317,-95.2428,0109,-2.91,-5.25,6.0000,209.0000
1983-10-08 00:00:00 UTC,2445615.500000,28.7317,-95.2428,0109,-3.07,-6.29,7.0000,206.0000
1983-10-08 00:30:00 UTC,2445615.520833,28.7317,-95.2428,0109,-2.96,-6.34,7.0000,205.0000
1983-10-08 01:00:00 UTC,2445615.541667,28.7317,-95.2428,0109,-3.07,-6.29,7.0000,206.0000
1983-10-08 01:30:00 UTC,2445615.562500,28.7317,-95.2428,0109,-3.88,-7.00,8.0000,209.0000
1983-10-08 02:00:00 UTC,2445615.583333,28.7317,-95.2428,0109,-4.00,-6.93,8.0000,210.0000
1983-10-08 02:30:00 UTC,2445615.604167,28.7317,-95.2428,0109,-4.12,-6.86,8.0000,211.0000
1983-10-08 03:00:00 UTC,2445615.625000,28.7317,-95.2428,0109,-4.47,-6.63,8.0000,214.0000
1983-10-08 03:30:00 UTC,2445615.645833,28.7317,-95.2428,0109,-4.31,-5.52,7.0000,218.0000
1983-10-08 04:00:00 UTC,2445615.666667,28.7317,-95.2428,0109,-3.86,-4.60,6.0000,220.0000
1983-10-08 04:30:00 UTC,2445615.687500,28.7317,-95.2428,0109,-3.86,-4.60,6.0000,220.0000
1983-10-08 05:00:00 UTC,2445615.708333,28.7317,-95.2428,0109,-3.35,-3.72,5.0000,222.0000
1983-10-08 05:30:00 UTC,2445615.729167,28.7317,-95.2428,0109,-3.54,-3.54,5.0000,225.0000
1983-10-08 06:00:00 UTC,2445615.750000,28.7317,-95.2428,0109,-2.26,-1.97,3.0000,229.0000
1983-10-08 06:30:00 UTC,2445615.770833,28.7317,-95.2428,0109,-1.68,-1.09,2.0000,237.0000
1983-10-08 07:00:00 UTC,2445615.791667,28.7317,-95.2428,0109,-0.91,-0.42,1.0000,245.0000
1983-10-08 07:30:00 UTC,2445615.812500,28.7317,-95.2428,0109,-0.00,-0.00,0.0000,248.0000
1983-10-08 08:00:00 UTC,2445615.833333,28.7317,-95.2428,0109,-0.00,0.00,0.0000,357.0000
1983-10-08 08:30:00 UTC,2445615.854167,28.7317,-95.2428,0109,-0.00,-0.00,0.0000,221.0000
1983-10-08 09:00:00 UTC,2445615.875000,28.7317,-95.2428,0109,-0.63,-0.78,1.0000,219.0000
1983-10-08 09:30:00 UTC,2445615.895833,28.7317,-95.2428,0109,-2.57,-3.06,4.0000,220.0000
1983-10-08 10:00:00 UTC,2445615.916667,28.7317,-95.2428,0109,-3.35,-3.72,5.0000,222.0000
1983-10-08 10:30:00 UTC,2445615.937500,28.7317,-95.2428,0109,-4.77,-5.12,7.0000,223.0000
1983-10-08 11:00:00 UTC,2445615.958333,28.7317,-95.2428,0109,-5.46,-5.85,8.0000,223.0000
1983-10-08 11:30:00 UTC,2445615.979167,28.7317,-95.2428,0109,-6.14,-6.58,9.0000,223.0000
1983-10-08 12:00:00 UTC,2445616.000000,28.7317,-95.2428,0109,-7.07,-7.07,10.0000,225.0000
1983-10-08 12:30:00 UTC,2445616.020833,28.7317,-95.2428,0109,-8.43,-7.07,11.0000,230.0000
1983-10-08 13:00:00 UTC,2445616.041667,28.7317,-95.2428,0109,-9.83,-6.88,12.0000,235.0000
1983-10-08 13:30:00 UTC,2445616.062500,28.7317,-95.2428,0109,-9.53,-5.50,11.0000,240.0000
1983-10-08 14:00:00 UTC,2445616.083333,28.7317,-95.2428,0109,-9.14,-4.07,10.0000,246.0000
1983-10-08 14:30:00 UTC,2445616.104167,28.7317,-95.2428,0109,-7.90,-1.25,8.0000,261.0000
1983-10-08 15:00:00 UTC,2445616.125000,28.7317,-95.2428,0109,-7.99,0.42,8.0000,273.0000
1983-10-08 15:30:00 UTC,2445616.145833,28.7317,-95.2428,0109,-7.90,1.25,8.0000,279.0000
1983-10-08 16:00:00 UTC,2445616.166667,28.7317,-95.2428,0109,-6.69,2.05,7.0000,287.0000
1983-10-08 16:30:00 UTC,2445616.187500,28.7317,-95.2428,0109,-6.29,3.07,7.0000,296.0000
1983-10-08 17:00:00 UTC,2445616.208333,28.7317,-95.2428,0109,-5.87,3.81,7.0000,303.0000
1983-10-08 17:30:00 UTC,2445616.229167,28.7317,-95.2428,0109,-3.77,3.28,5.0000,311.0000
1983-10-08 18:00:00 UTC,2445616.250000,28.7317,-95.2428,0109,-2.94,4.05,5.0000,324.0000
1983-10-08 18:30:00 UTC,2445616.270833,28.7317,-95.2428,0109,-2.72,5.35,6.0000,333.0000
1983-10-08 19:00:00 UTC,2445616.291667,28.7317,-95.2428,0109,-2.05,5.64,6.0000,340.0000
1983-10-08 19:30:00 UTC,2445616.312500,28.7317,-95.2428,0109,-1.69,6.79,7.0000,346.0000
1983-10-08 20:00:00 UTC,2445616.333333,28.7317,-95.2428,0109,-0.73,6.96,7.0000,354.0000
1983-10-08 20:30:00 UTC,2445616.354167,28.7317,-95.2428,0109,0.14,8.00,8.0000,1.0000
1983-10-08 21:00:00 UTC,2445616.375000,28.7317,-95.2428,0109,1.25,8.91,9.0000,8.0000
1983-10-08 21:30:00 UTC,2445616.395833,28.7317,-95.2428,0109,2.63,8.61,9.0000,17.0000
1983-10-08 22:00:00 UTC,2445616.416667,28.7317,-95.2428,0109,3.13,7.36,8.0000,23.0000
1983-10-08 22:30:00 UTC,2445616.437500,28.7317,-95.2428,0109,3.07,6.29,7.0000,26.0000
1983-10-08 23:00:00 UTC,2445616.458333,28.7317,-95.2428,0109,3.39,6.12,7.0000,29.0000
1983-10-08 23:30:00 UTC,2445616.479167,28.7317,-95.2428,0109,3.91,5.80,7.0000,34.0000
1983-10-09 00:00:00 UTC,2445616.500000,28.7317,-95.2428,0109,3.78,4.66,6.0000,39.0000
1983-10-09 00:30:00 UTC,2445616.520833,28.7317,-95.2428,0109,2.68,2.97,4.0000,42.0000
1983-10-09 01:00:00 UTC,2445616.541667,28.7317,-95.2428,0109,2.67,1.36,3.0000,63.0000
1983-10-09 01:30:00 UTC,2445616.562500,28.7317,-95.2428,0109,2.99,0.21,3.0000,86.0000
1983-10-09 02:00:00 UTC,2445616.583333,28.7317,-95.2428,0109,3.00,-0.05,3.0000,91.0000
1983-10-09 02:30:00 UTC,2445616.604167,28.7317,-95.2428,0109,2.93,2.73,4.0000,47.0000
1983-10-09 03:00:00 UTC,2445616.625000,28.7317,-95.2428,0109,3.52,8.28,9.0000,23.0000
1983-10-09 03:30:00 UTC,2445616.645833,28.7317,-95.2428,0109,3.94,10.27,11.0000,21.0000
1983-10-09 04:00:00 UTC,2445616.666667,28.7317,-95.2428,0109,4.23,9.06,10.0000,25.0000
1983-10-09 04:30:00 UTC,2445616.687500,28.7317,-95.2428,0109,4.85,8.75,10.0000,29.0000
1983-10-09 05:00:00 UTC,2445616.708333,28.7317,-95.2428,0109,5.16,9.71,11.0000,28.0000
1983-10-09 05:30:00 UTC,2445616.729167,28.7317,-95.2428,0109,5.70,11.68,13.0000,26.0000
1983-10-09 06:00:00 UTC,2445616.750000,28.7317,-95.2428,0109,5.47,12.89,14.0000,23.0000
1983-10-09 06:30:00 UTC,2445616.770833,28.7317,-95.2428,0109,4.41,15.38,16.0000,16.0000
1983-10-09 07:00:00 UTC,2445616.791667,28.7317,-95.2428,0109,2.95,16.74,17.0000,10.0000
1983-10-09 07:30:00 UTC,2445616.812500,28.7317,-95.2428,0109,2.32,18.86,19.0000,7.0000
1983-10-09 08:00:00 UTC,2445616.833333,28.7317,-95.2428,0109,2.44,19.85,20.0000,7.0000
1983-10-09 08:30:00 UTC,2445616.854167,28.7317,-95.2428,0109,3.13,19.75,20.0000,9.0000
1983-10-09 09:00:00 UTC,2445616.875000,28.7317,-95.2428,0109,5.24,18.26,19.0000,16.0000
1983-10-09 09:30:00 UTC,2445616.895833,28.7317,-95.2428,0109,6.37,15.76,17.0000,22.0000
1983-10-09 10:00:00 UTC,2445616.916667,28.7317,-95.2428,0109,6.10,13.70,15.0000,24.0000
1983-10-09 10:30:00 UTC,2445616.937500,28.7317,-95.2428,0109,5.45,10.69,12.0000,27.0000
1983-10-09 11:00:00 UTC,2445616.958333,28.7317,-95.2428,0109,5.29,7.28,9.0000,36.0000
1983-10-09 11:30:00 UTC,2445616.979167,28.7317,-95.2428,0109,5.04,4.86,7.0000,46.0000
1983-10-09 12:00:00 UTC,2445617.000000,28.7317,-95.2428,0109,4.91,3.44,6.0000,55.0000
1983-10-09 12:30:00 UTC,2445617.020833,28.7317,-95.2428,0109,4.10,2.87,5.0000,55.0000
1983-10-09 13:00:00 UTC,2445617.041667,28.7317,-95.2428,0109,1.85,2.36,3.0000,38.0000
1983-10-09 13:30:00 UTC,2445617.062500,28.7317,-95.2428,0109,-0.31,2.98,3.0000,354.0000
1983-10-09 14:00:00 UTC,2445617.083333,28.7317,-95.2428,0109,-1.63,4.73,5.0000,341.0000
1983-10-09 14:30:00 UTC,2445617.104167,28.7317,-95.2428,0109,-1.04,3.86,4.0000,345.0000
1983-10-09 15:00:00 UTC,2445617.125000,28.7317,-95.2428,0109,0.62,1.90,2.0000,18.0000
1983-10-09 15:30:00 UTC,2445617.145833,28.7317,-95.2428,0109,1.80,0.88,2.0000,64.0000
1983-10-09 16:00:00 UTC,2445617.166667,28.7317,-95.2428,0109,1.95,0.45,2.0000,77.0000
1983-10-09 16:30:00 UTC,2445617.187500,28.7317,-95.2428,0109,2.94,0.57,3.0000,79.0000
1983-10-09 17:00:00 UTC,2445617.208333,28.7317,-95.2428,0109,3.93,0.76,4.0000,79.0000
1983-10-09 17:30:00 UTC,2445617.229167,28.7317,-95.2428,0109,3.91,0.83,4.0000,78.0000
1983-10-09 18:00:00 UTC,2445617.250000,28.7317,-95.2428,0109,5.09,3.18,6.0000,58.0000
1983-10-09 18:30:00 UTC,2445617.270833,28.7317,-95.2428,0109,4.47,6.63,8.0000,34.0000
1983-10-09 19:00:00 UTC,2445617.291667,28.7317,-95.2428,0109,5.15,8.57,10.0000,31.0000
1983-10-09 19:30:00 UTC,2445617.312500,28.7317,-95.2428,0109,7.50,8.04,11.0000,43.0000
1983-10-09 20:00:00 UTC,2445617.333333,28.7317,-95.2428,0109,9.58,7.22,12.0000,53.0000
1983-10-09 20:30:00 UTC,2445617.354167,28.7317,-95.2428,0109,9.96,8.36,13.0000,50.0000
1983-10-09 21:00:00 UTC,2445617.375000,28.7317,-95.2428,0109,7.55,9.33,12.0000,39.0000
1983-10-09 21:30:00 UTC,2445617.395833,28.7317,-95.2428,0109,6.30,11.37,13.0000,29.0000
1983-10-09 22:00:00 UTC,2445617.416667,28.7317,-95.2428,0109,7.00,12.12,14.0000,30.0000
1983-10-09 22:30:00 UTC,2445617.437500,28.7317,-95.2428,0109,9.23,11.82,15.0000,38.0000
1983-10-09 23:00:00 UTC,2445617.458333,28.7317,-95.2428,0109,10.42,10.79,15.0000,44.0000
1983-10-09 23:30:00 UTC,2445617.479167,28.7317,-95.2428,0109,12.43,11.59,17.0000,47.0000
1983-10-10 00:00:00 UTC,2445617.500000,28.7317,-95.2428,0109,12.83,11.15,17.0000,49.0000
1983-10-10 00:30:00 UTC,2445617.520833,28.7317,-95.2428,0109,11.98,9.03,15.0000,53.0000
1983-10-10 01:00:00 UTC,2445617.541667,28.7317,-95.2428,0109,9.97,4.65,11.0000,65.0000
1983-10-10 01:30:00 UTC,2445617.562500,28.7317,-95.2428,0109,9.95,1.05,10.0000,84.0000
1983-10-10 02:00:00 UTC,2445617.583333,28.7317,-95.2428,0109,10.99,-0.38,11.0000,92.0000
1983-10-10 02:30:00 UTC,2445617.604167,28.7317,-95.2428,0109,10.97,0.77,11.0000,86.0000
1983-10-10 03:00:00 UTC,2445617.625000,28.7317,-95.2428,0109,10.63,2.85,11.0000,75.0000
1983-10-10 03:30:00 UTC,2445617.645833,28.7317,-95.2428,0109,10.27,3.94,11.0000,69.0000
1983-10-10 04:00:00 UTC,2445617.666667,28.7317,-95.2428,0109,10.05,4.47,11.0000,66.0000
1983-10-10 04:30:00 UTC,2445617.687500,28.7317,-95.2428,0109,8.99,4.38,10.0000,64.0000
1983-10-10 05:00:00 UTC,2445617.708333,28.7317,-95.2428,0109,8.22,3.66,9.0000,66.0000
1983-10-10 05:30:00 UTC,2445617.729167,28.7317,-95.2428,0109,8.69,2.33,9.0000,75.0000
1983-10-10 06:00:00 UTC,2445617.750000,28.7317,-95.2428,0109,9.82,1.91,10.0000,79.0000
1983-10-10 06:30:00 UTC,2445617.770833,28.7317,-95.2428,0109,10.67,2.66,11.0000,76.0000
1983-10-10 07:00:00 UTC,2445617.791667,28.7317,-95.2428,0109,10.80,2.10,11.0000,79.0000
1983-10-10 07:30:00 UTC,2445617.812500,28.7317,-95.2428,0109,9.99,0.52,10.0000,87.0000